User: anonymous   Login
Location: Veyrier
(46.1830°N, 6.2000°E)
Time: 16:54:28
(UTC+01:00)
Language:

Iridium 98 - Orbit

View from above orbital plane
View from above orbital plane
View from above satellite
View from above satellite

Ground track
Ground track

The orbit data is extracted from the following two-line orbital elements,

1 27451U 02031B   14327.36059795  .00000567  00000-0  19532-3 0  5982
2 27451 086.3976 053.8430 0002228 107.0008 321.0514 14.34227298657021
Epoch (UTC): 23 November 2014 08:39:15
Eccentricity: 0.0002228
inclination: 86.3976°
perigee height: 776 km
apogee height: 779 km
right ascension of ascending node: 53.8430°
argument of perigee: 107.0008°
revolutions per day: 14.34227298
mean anomaly at epoch: 321.0514°
orbit number at epoch: 65702

The dashed part of the orbit path shows where the satellite is in the earth's shadow,  

DLR